Darstellungsparameter: Aktuell verwendete Einstellungen:
Skalierung der Graphiken ... ?
xyx+y,   Skalierungsfaktor:      Skalierung: Modus: x, Faktor: 1
Darstellungszeitraum ... ?
Vom - - bis: - -   Zeitraum: 28.04.2010 - 04.05.2010
Min/Max/Avg-Anzeige ... ?
Zeige MMA aktuell
Zeige MMA Monat
Zeige MMA alles
Zeige --A aktuell
Zeige --A Monat
Zeige --A alles
Keine MMA-Anzeige
MMA:
Average (ber die Originaldaten)
MMA-Basis: 28.04.2010 - 04.05.2010
Quicknavigation für Darstellung... ?
Tage:      1T, 2T, 3T, 5T -1T -2T -3T -5T +1T +2T +3T +5T
Wochen: 1W, 2W, 3W -1W -2W -3W +1W +2W +3W
Monate: 1M, 3M, 6M -1M -3M -6M +1M +3M +6M
Jahre:    1J, 3J, 5J, 10J -1J -3J -5J -10J +1J +3J +5J +10J
Nutze für die Darstellung ... ?
Originaldaten oder Mittelwerte auf ...
Stundenbasis Tagesbasis Wochenbasis
Monatsbasis Jahresbasis      Datenbasis: Original-Daten
Darstellen als:
Statistik (Auto) Statistik J:M      Darstellung:
Zur Graphik,    zurück zur Übersicht aller Sensoren.
 
Tabellarische Datenbersicht: ?
 
Sensor: Nr:Datum:Temp:Abs-Feuchte:Windchill:Wind:
Aussen-T/F 1 28-04-2010 00:02:03 12.5 C 5.5 g/m*3 12.5 C 0 km/h
2 28-04-2010 00:14:03 12.3 C 5.43 g/m*3 12.3 C 0 km/h
3 28-04-2010 00:26:03 12.2 C 5.5 g/m*3 12.2 C 0 km/h
4 28-04-2010 00:38:03 12 C 5.54 g/m*3 12 C 0 km/h
5 28-04-2010 00:50:03 11.9 C 5.61 g/m*3 11.9 C 0 km/h
6 28-04-2010 01:02:03 11.7 C 5.65 g/m*3 11.7 C 0 km/h
7 28-04-2010 01:14:03 11.5 C 5.58 g/m*3 11.5 C 0 km/h
8 28-04-2010 01:26:03 11.1 C 5.74 g/m*3 11.1 C 0 km/h
9 28-04-2010 01:38:03 10.8 C 5.83 g/m*3 10.8 C 0 km/h
10 28-04-2010 01:50:03 10.8 C 5.83 g/m*3 10.8 C 0 km/h
11 28-04-2010 02:02:03 10.8 C 5.83 g/m*3 10.8 C 0 km/h
12 28-04-2010 02:14:03 10.7 C 5.8 g/m*3 10.7 C 0 km/h
13 28-04-2010 02:26:03 10.5 C 5.82 g/m*3 10.5 C 0 km/h
14 28-04-2010 02:38:03 10.3 C 5.75 g/m*3 10.3 C 0 km/h
15 28-04-2010 02:50:03 10.1 C 5.67 g/m*3 10.1 C 0 km/h
16 28-04-2010 03:02:04 9.9 C 5.79 g/m*3 9.9 C 0 km/h
17 28-04-2010 03:14:04 9.8 C 5.75 g/m*3 9.8 C 0 km/h
18 28-04-2010 03:26:04 9.7 C 5.81 g/m*3 9.7 C 0 km/h
19 28-04-2010 03:38:04 9.5 C 5.83 g/m*3 9.5 C 0 km/h
20 28-04-2010 03:50:04 9.3 C 5.84 g/m*3 9.3 C 0 km/h
21 28-04-2010 04:02:04 9.1 C 5.86 g/m*3 9.1 C 0 km/h
22 28-04-2010 04:14:04 8.9 C 5.96 g/m*3 8.9 C 0 km/h
23 28-04-2010 04:26:04 8.7 C 5.97 g/m*3 8.7 C 0 km/h
24 28-04-2010 04:38:04 8.5 C 5.98 g/m*3 8.5 C 0 km/h
25 28-04-2010 04:50:04 8.3 C 5.9 g/m*3 8.3 C 0 km/h
Sensor: Nr:Datum:Temp:Abs-Feuchte:Windchill:Wind:
Aussen-T/F 26 28-04-2010 05:02:04 8.2 C 5.95 g/m*3 8.2 C 0 km/h
27 28-04-2010 05:14:04 7.9 C 5.91 g/m*3 7.9 C 0 km/h
28 28-04-2010 05:26:04 7.9 C 5.91 g/m*3 7.9 C 0 km/h
29 28-04-2010 05:38:04 7.7 C 5.84 g/m*3 7.7 C 0 km/h
30 28-04-2010 05:50:04 7.6 C 5.8 g/m*3 7.6 C 0 km/h
31 28-04-2010 06:02:04 7.5 C 5.76 g/m*3 7.5 C 0 km/h
32 28-04-2010 06:14:04 7.3 C 5.77 g/m*3 7.3 C 0 km/h
33 28-04-2010 06:26:04 7.2 C 5.81 g/m*3 7.2 C 0 km/h
34 28-04-2010 06:38:04 7.1 C 5.85 g/m*3 7.1 C 0 km/h
35 28-04-2010 06:50:04 7.1 C 5.85 g/m*3 7.1 C 0 km/h
36 28-04-2010 07:02:01 7.2 C 5.89 g/m*3 7.2 C 0 km/h
37 28-04-2010 07:14:01 7.3 C 6 g/m*3 7.3 C 0 km/h
38 28-04-2010 07:26:02 7.4 C 5.96 g/m*3 7.4 C 0 km/h
39 28-04-2010 07:38:01 7.6 C 6.12 g/m*3 7.6 C 0 km/h
40 28-04-2010 07:50:02 7.7 C 6.08 g/m*3 7.7 C 0 km/h
41 28-04-2010 08:02:01 7.9 C 6.16 g/m*3 7.9 C 0 km/h
42 28-04-2010 08:14:01 8 C 6.04 g/m*3 8 C 0 km/h
43 28-04-2010 08:26:02 8.2 C 6.11 g/m*3 8.2 C 0 km/h
44 28-04-2010 08:38:01 8.6 C 6.19 g/m*3 8.6 C 0 km/h
45 28-04-2010 08:50:02 8.8 C 6.18 g/m*3 8.8 C 0 km/h
46 28-04-2010 09:02:02 9.2 C 6.16 g/m*3 9.2 C 0 km/h
47 28-04-2010 09:14:02 9.8 C 6.31 g/m*3 9.8 C 0 km/h
48 28-04-2010 09:26:02 10.5 C 6.4 g/m*3 10.5 C 0 km/h
49 28-04-2010 09:38:02 11.1 C 6.45 g/m*3 11.1 C 0 km/h
50 28-04-2010 09:50:02 11.7 C 6.38 g/m*3 11.7 C 0 km/h
Sensor: Nr:Datum:Temp:Abs-Feuchte:Windchill:Wind:
Aussen-T/F 51 28-04-2010 10:02:02 12.4 C 6.56 g/m*3 12.4 C 0 km/h
52 28-04-2010 10:14:02 13.2 C 6.43 g/m*3 13.2 C 0 km/h
53 28-04-2010 10:26:02 13.8 C 6.43 g/m*3 13.8 C 0 km/h
54 28-04-2010 10:38:02 14.8 C 6.21 g/m*3 14.8 C 0 km/h
55 28-04-2010 10:50:02 15.6 C 6.12 g/m*3 15.6 C 0 km/h
56 28-04-2010 11:02:01 16.3 C 5.97 g/m*3 16.3 C 0 km/h
57 28-04-2010 11:14:01 17.3 C 6.19 g/m*3 17.3 C 0 km/h
58 28-04-2010 11:26:02 18 C 6.14 g/m*3 18 C 0 km/h
59 28-04-2010 11:38:01 18.4 C 5.82 g/m*3 18.4 C 0 km/h
60 28-04-2010 11:50:03 18.8 C 5.31 g/m*3 18.8 C 0 km/h
61 28-04-2010 12:02:02 19.1 C 5.25 g/m*3 19.1 C 0 km/h
62 28-04-2010 12:14:02 19.7 C 4.58 g/m*3 19.7 C 0 km/h
63 28-04-2010 12:26:02 20 C 4.49 g/m*3 20 C 0 km/h
64 28-04-2010 12:38:02 20.6 C 4.47 g/m*3 20.6 C 0 km/h
65 28-04-2010 12:50:02 21.1 C 4.24 g/m*3 21.1 C 0 km/h
66 28-04-2010 13:02:01 21.4 C 4.12 g/m*3 21.4 C 0 km/h
67 28-04-2010 13:14:01 22.6 C 4.02 g/m*3 22.6 C 0 km/h
68 28-04-2010 13:26:02 23.5 C 4.23 g/m*3 23.5 C 0 km/h
69 28-04-2010 13:38:01 23.3 C 4.18 g/m*3 23.3 C 0 km/h
70 28-04-2010 13:50:02 23.5 C 4.23 g/m*3 23.5 C 0 km/h
71 28-04-2010 14:02:01 24.1 C 4.38 g/m*3 24.1 C 0 km/h
72 28-04-2010 14:14:01 24.6 C 4.5 g/m*3 24.6 C 0 km/h
73 28-04-2010 14:26:02 24.9 C 4.58 g/m*3 24.9 C 0 km/h
74 28-04-2010 14:38:01 24.5 C 4.48 g/m*3 24.5 C 0 km/h
75 28-04-2010 14:50:02 24.7 C 4.53 g/m*3 24.7 C 0 km/h
Sensor: Nr:Datum:Temp:Abs-Feuchte:Windchill:Wind:
Aussen-T/F 76 28-04-2010 15:02:02 25.8 C 4.82 g/m*3 25.8 C 0 km/h
77 28-04-2010 15:14:02 25.5 C 4.73 g/m*3 25.5 C 0 km/h
78 28-04-2010 15:26:02 25.8 C 4.82 g/m*3 25.8 C 0 km/h
79 28-04-2010 15:38:02 26.4 C 4.98 g/m*3 26.4 C 0 km/h
80 28-04-2010 15:50:02 26.6 C 5.03 g/m*3 26.6 C 0 km/h
81 28-04-2010 16:02:02 27.4 C 5.26 g/m*3 27.4 C 0 km/h
82 28-04-2010 16:14:02 27.6 C 5.32 g/m*3 27.6 C 0 km/h
83 28-04-2010 16:26:02 28 C 5.44 g/m*3 28 C 0 km/h
84 28-04-2010 16:38:01 28 C 5.44 g/m*3 28 C 0 km/h
85 28-04-2010 16:50:02 27.9 C 5.41 g/m*3 27.9 C 0 km/h
86 28-04-2010 17:02:01 28 C 5.44 g/m*3 28 C 0 km/h
87 28-04-2010 17:14:01 29.2 C 5.81 g/m*3 29.2 C 0 km/h
88 28-04-2010 17:26:02 28.9 C 5.71 g/m*3 28.9 C 0 km/h
89 28-04-2010 17:38:01 27.9 C 5.41 g/m*3 27.9 C 0 km/h
90 28-04-2010 17:50:02 28.5 C 5.59 g/m*3 28.5 C 0 km/h
91 28-04-2010 18:02:02 28.2 C 5.5 g/m*3 28.2 C 0 km/h
92 28-04-2010 18:14:02 28.4 C 5.56 g/m*3 28.4 C 0 km/h
93 28-04-2010 18:26:02 28.4 C 5.56 g/m*3 28.4 C 0 km/h
94 28-04-2010 18:38:02 28.3 C 5.53 g/m*3 28.3 C 0 km/h
95 28-04-2010 18:50:02 27.9 C 5.41 g/m*3 27.9 C 0 km/h
96 28-04-2010 19:02:01 27.1 C 5.18 g/m*3 27.1 C 0 km/h
97 28-04-2010 19:14:01 26.5 C 5.01 g/m*3 26.5 C 0 km/h
98 28-04-2010 19:26:02 25.9 C 4.84 g/m*3 25.9 C 0 km/h
99 28-04-2010 19:38:01 25 C 4.83 g/m*3 25 C 0 km/h
100 28-04-2010 19:50:02 24.6 C 4.95 g/m*3 24.6 C 0 km/h
Sensor: Nr:Datum:Temp:Abs-Feuchte:Windchill:Wind:
Aussen-T/F 101 28-04-2010 20:02:01 23.9 C 5.41 g/m*3 23.9 C 0 km/h
102 28-04-2010 20:14:01 23 C 5.34 g/m*3 23 C 0 km/h
103 28-04-2010 20:26:01 22.1 C 5.47 g/m*3 22.1 C 0 km/h
104 28-04-2010 20:38:02 21.3 C 5.59 g/m*3 21.3 C 0 km/h
105 28-04-2010 20:50:02 20.4 C 5.48 g/m*3 20.4 C 0 km/h
106 28-04-2010 21:02:02 19.7 C 5.6 g/m*3 19.7 C 0 km/h
107 28-04-2010 21:14:02 19.3 C 5.47 g/m*3 19.3 C 0 km/h
108 28-04-2010 21:26:02 18.9 C 5.67 g/m*3 18.9 C 0 km/h
109 28-04-2010 21:38:01 18.8 C 5.64 g/m*3 18.8 C 0 km/h
110 28-04-2010 21:51:04 18.5 C 5.54 g/m*3 18.5 C 0 km/h
111 28-04-2010 22:03:04 18.5 C 5.7 g/m*3 18.5 C 0 km/h
112 28-04-2010 22:15:04 18.3 C 5.63 g/m*3 18.3 C 0 km/h
113 28-04-2010 22:27:04 18.2 C 5.6 g/m*3 18.2 C 0 km/h
114 28-04-2010 22:39:04 18 C 5.68 g/m*3 18 C 0 km/h
115 28-04-2010 22:51:04 18 C 5.53 g/m*3 18 C 0 km/h
116 28-04-2010 23:03:04 17.7 C 5.73 g/m*3 17.7 C 0 km/h
117 28-04-2010 23:15:04 17.3 C 5.75 g/m*3 17.3 C 0 km/h
118 28-04-2010 23:27:04 17 C 5.64 g/m*3 17 C 0 km/h
119 28-04-2010 23:39:04 16.6 C 5.79 g/m*3 16.6 C 0 km/h
120 28-04-2010 23:51:04 16.2 C 5.79 g/m*3 16.2 C 0 km/h
121 29-04-2010 00:03:04 16.2 C 5.79 g/m*3 16.2 C 0 km/h
122 29-04-2010 00:15:04 15.8 C 6.06 g/m*3 15.8 C 0 km/h
123 29-04-2010 00:27:05 15.4 C 5.78 g/m*3 15.4 C 0 km/h
124 29-04-2010 00:39:05 15.1 C 5.93 g/m*3 15.1 C 0 km/h
125 29-04-2010 00:51:05 14.7 C 5.79 g/m*3 14.7 C 0 km/h
Sensor: Nr:Datum:Temp:Abs-Feuchte:Windchill:Wind:
Aussen-T/F 126 29-04-2010 01:03:05 14.6 C 5.88 g/m*3 14.6 C 0 km/h
127 29-04-2010 01:15:05 14.2 C 5.74 g/m*3 14.2 C 0 km/h
128 29-04-2010 01:27:05 14 C 5.67 g/m*3 14 C 0 km/h
129 29-04-2010 01:39:05 13.8 C 5.72 g/m*3 13.8 C 0 km/h
130 29-04-2010 01:51:05 13.5 C 5.85 g/m*3 13.5 C 0 km/h
131 29-04-2010 02:03:05 13.6 C 5.88 g/m*3 13.6 C 0 km/h
132 29-04-2010 02:15:05 12.8 C 6.05 g/m*3 12.8 C 0 km/h
133 29-04-2010 02:27:05 12.9 C 6.09 g/m*3 12.9 C 0 km/h
134 29-04-2010 02:39:05 12.7 C 6.01 g/m*3 12.7 C 0 km/h
135 29-04-2010 02:51:05 12.5 C 6.16 g/m*3 12.5 C 0 km/h
136 29-04-2010 03:03:05 12.2 C 6.37 g/m*3 12.2 C 0 km/h
137 29-04-2010 03:15:05 12 C 6.29 g/m*3 12 C 0 km/h
138 29-04-2010 03:27:05 11.8 C 6.21 g/m*3 11.8 C 0 km/h
139 29-04-2010 03:39:05 11.8 C 6.31 g/m*3 11.8 C 0 km/h
140 29-04-2010 03:51:05 11.7 C 6.38 g/m*3 11.7 C 0 km/h
141 29-04-2010 04:03:05 11.7 C 6.38 g/m*3 11.7 C 0 km/h
142 29-04-2010 04:15:05 11.5 C 6.4 g/m*3 11.5 C 0 km/h
143 29-04-2010 04:27:06 11.2 C 6.49 g/m*3 11.2 C 0 km/h
144 29-04-2010 04:39:06 10.9 C 6.56 g/m*3 10.9 C 0 km/h
145 29-04-2010 04:51:06 10.8 C 6.42 g/m*3 10.8 C 0 km/h
146 29-04-2010 05:03:06 10.7 C 6.38 g/m*3 10.7 C 0 km/h
147 29-04-2010 05:15:06 10.6 C 6.34 g/m*3 10.6 C 0 km/h
148 29-04-2010 05:27:06 10.4 C 6.26 g/m*3 10.4 C 0 km/h
149 29-04-2010 05:39:06 10.3 C 6.32 g/m*3 10.3 C 0 km/h
150 29-04-2010 05:51:06 10.2 C 6.28 g/m*3 10.2 C 0 km/h
Sensor: Nr:Datum:Temp:Abs-Feuchte:Windchill:Wind:
Aussen-T/F 151 29-04-2010 06:03:06 10.1 C 6.24 g/m*3 10.1 C 0 km/h
152 29-04-2010 06:15:06 9.9 C 6.35 g/m*3 9.9 C 0 km/h
153 29-04-2010 06:27:06 9.7 C 6.45 g/m*3 9.7 C 0 km/h
154 29-04-2010 06:39:06 9.8 C 6.49 g/m*3 9.8 C 0 km/h
155 29-04-2010 06:51:01 9.8 C 6.49 g/m*3 9.8 C 0 km/h
156 29-04-2010 07:03:02 10 C 6.48 g/m*3 10 C 0 km/h
157 29-04-2010 07:15:01 10.1 C 6.52 g/m*3 10.1 C 0 km/h
158 29-04-2010 07:27:01 10.3 C 6.61 g/m*3 10.3 C 0 km/h
159 29-04-2010 07:39:02 10.3 C 6.61 g/m*3 10.3 C 0 km/h
160 29-04-2010 07:51:02 10.4 C 6.65 g/m*3 10.4 C 0 km/h
161 29-04-2010 08:03:02 10.9 C 6.76 g/m*3 10.9 C 0 km/h
162 29-04-2010 08:15:02 11.9 C 6.88 g/m*3 11.9 C 0 km/h
163 29-04-2010 08:27:02 12.5 C 6.71 g/m*3 12.5 C 0 km/h
164 29-04-2010 08:39:02 12.8 C 6.72 g/m*3 12.8 C 0 km/h
165 29-04-2010 08:51:01 12.9 C 6.76 g/m*3 12.9 C 0 km/h
166 29-04-2010 09:03:02 12.8 C 6.72 g/m*3 12.8 C 0 km/h
167 29-04-2010 09:15:02 13.1 C 6.62 g/m*3 13.1 C 0 km/h
168 29-04-2010 09:27:02 14 C 6.39 g/m*3 14 C 0 km/h
169 29-04-2010 09:39:02 14.9 C 6.5 g/m*3 14.9 C 0 km/h
170 29-04-2010 09:51:01 15.7 C 6.15 g/m*3 15.7 C 0 km/h
171 29-04-2010 10:03:02 16.6 C 6.36 g/m*3 16.6 C 0 km/h
172 29-04-2010 10:15:02 17.4 C 6.37 g/m*3 17.4 C 0 km/h
173 29-04-2010 10:27:02 17.7 C 6.49 g/m*3 17.7 C 0 km/h
174 29-04-2010 10:39:01 18.3 C 6.88 g/m*3 18.3 C 0 km/h
175 29-04-2010 10:51:01 19.3 C 6.8 g/m*3 19.3 C 0 km/h
Sensor: Nr:Datum:Temp:Abs-Feuchte:Windchill:Wind:
Aussen-T/F 176 29-04-2010 11:03:01 20.1 C 6.78 g/m*3 20.1 C 0 km/h
177 29-04-2010 11:15:02 20.9 C 6.74 g/m*3 20.9 C 0 km/h
178 29-04-2010 11:27:02 22 C 6.4 g/m*3 22 C 0 km/h
179 29-04-2010 11:39:01 22.3 C 6.12 g/m*3 22.3 C 0 km/h
180 29-04-2010 11:51:01 22.5 C 6.39 g/m*3 22.5 C 0 km/h
181 29-04-2010 12:03:01 22.7 C 6.26 g/m*3 22.7 C 0 km/h
182 29-04-2010 12:15:02 23.7 C 6.2 g/m*3 23.7 C 0 km/h
183 29-04-2010 12:27:02 24 C 5.87 g/m*3 24 C 0 km/h
184 29-04-2010 12:39:01 24.3 C 5.75 g/m*3 24.3 C 0 km/h
185 29-04-2010 12:51:03 24.7 C 4.75 g/m*3 24.7 C 0 km/h
186 29-04-2010 13:03:02 25.2 C 4.66 g/m*3 25.2 C 0 km/h
187 29-04-2010 13:15:03 25.7 C 4.79 g/m*3 25.7 C 0 km/h
188 29-04-2010 13:27:03 25.9 C 4.84 g/m*3 25.9 C 0 km/h
189 29-04-2010 13:39:02 26.1 C 4.9 g/m*3 26.1 C 0 km/h
190 29-04-2010 13:51:03 26.4 C 4.98 g/m*3 26.4 C 0 km/h
191 29-04-2010 14:03:02 26.4 C 4.98 g/m*3 26.4 C 0 km/h
192 29-04-2010 14:15:02 26.6 C 5.03 g/m*3 26.6 C 0 km/h
193 29-04-2010 14:27:02 27.1 C 5.18 g/m*3 27.1 C 0 km/h
194 29-04-2010 14:39:02 27 C 5.15 g/m*3 27 C 0 km/h
195 29-04-2010 14:51:02 28 C 5.44 g/m*3 28 C 0 km/h
196 29-04-2010 15:03:02 27.9 C 5.41 g/m*3 27.9 C 0 km/h
197 29-04-2010 15:15:02 27.6 C 5.32 g/m*3 27.6 C 0 km/h
198 29-04-2010 15:27:02 27.6 C 5.32 g/m*3 27.6 C 0 km/h
199 29-04-2010 15:39:01 27.6 C 5.32 g/m*3 27.6 C 0 km/h
200 29-04-2010 15:51:02 27.6 C 5.32 g/m*3 27.6 C 0 km/h
Sensor: Nr:Datum:Temp:Abs-Feuchte:Windchill:Wind:
Aussen-T/F 201 29-04-2010 16:03:01 27.9 C 5.41 g/m*3 27.9 C 0 km/h
202 29-04-2010 16:15:02 27.8 C 5.38 g/m*3 27.8 C 0 km/h
203 29-04-2010 16:27:02 27.9 C 5.41 g/m*3 27.9 C 0 km/h
204 29-04-2010 16:39:01 27.6 C 5.32 g/m*3 27.6 C 0 km/h
205 29-04-2010 16:51:03 27.8 C 5.38 g/m*3 27.8 C 0 km/h
206 29-04-2010 17:03:02 27.8 C 5.38 g/m*3 27.8 C 0 km/h
207 29-04-2010 17:15:02 27.8 C 5.38 g/m*3 27.8 C 0 km/h
208 29-04-2010 17:27:02 27.5 C 5.29 g/m*3 27.5 C 0 km/h
209 29-04-2010 17:39:02 27.8 C 5.38 g/m*3 27.8 C 0 km/h
210 29-04-2010 17:51:02 28.4 C 5.56 g/m*3 28.4 C 0 km/h
211 29-04-2010 18:03:02 28 C 5.44 g/m*3 28 C 0 km/h
212 29-04-2010 18:15:02 27.8 C 5.38 g/m*3 27.8 C 0 km/h
213 29-04-2010 18:27:02 27.5 C 5.29 g/m*3 27.5 C 0 km/h
214 29-04-2010 18:39:02 27.5 C 5.29 g/m*3 27.5 C 0 km/h
215 29-04-2010 18:51:02 27 C 5.15 g/m*3 27 C 0 km/h
216 29-04-2010 19:03:02 26.5 C 5.01 g/m*3 26.5 C 0 km/h
217 29-04-2010 19:15:02 26.1 C 4.9 g/m*3 26.1 C 0 km/h
218 29-04-2010 19:27:02 25.7 C 4.79 g/m*3 25.7 C 0 km/h
219 29-04-2010 19:39:02 25.3 C 4.68 g/m*3 25.3 C 0 km/h
220 29-04-2010 19:51:01 24.8 C 5.01 g/m*3 24.8 C 0 km/h
221 29-04-2010 20:03:02 24.4 C 5.12 g/m*3 24.4 C 0 km/h
222 29-04-2010 20:15:02 23.9 C 5.41 g/m*3 23.9 C 0 km/h
223 29-04-2010 20:27:02 23.6 C 5.53 g/m*3 23.6 C 0 km/h
224 29-04-2010 20:39:02 23.1 C 5.58 g/m*3 23.1 C 0 km/h
225 29-04-2010 20:51:02 22.6 C 6.03 g/m*3 22.6 C 0 km/h
Sensor: Nr:Datum:Temp:Abs-Feuchte:Windchill:Wind:
Aussen-T/F 226 29-04-2010 21:03:02 22.2 C 6.09 g/m*3 22.2 C 0 km/h
227 29-04-2010 21:15:02 21.9 C 6.37 g/m*3 21.9 C 0 km/h
228 29-04-2010 21:27:02 21.7 C 6.29 g/m*3 21.7 C 0 km/h
229 29-04-2010 21:39:01 21.6 C 6.45 g/m*3 21.6 C 0 km/h
230 29-04-2010 21:51:02 21.5 C 6.41 g/m*3 21.5 C 0 km/h
231 29-04-2010 22:03:01 21.4 C 6.56 g/m*3 21.4 C 0 km/h
232 29-04-2010 22:15:02 21.3 C 6.52 g/m*3 21.3 C 0 km/h
233 29-04-2010 22:27:02 21.1 C 6.63 g/m*3 21.1 C 0 km/h
234 29-04-2010 22:39:01 20.7 C 7.02 g/m*3 20.7 C 0 km/h
235 29-04-2010 22:51:02 20.5 C 7.12 g/m*3 20.5 C 0 km/h
236 29-04-2010 23:04:01 20.4 C 7.08 g/m*3 20.4 C 0 km/h
237 29-04-2010 23:16:01 20.1 C 7.13 g/m*3 20.1 C 0 km/h
238 29-04-2010 23:28:01 19.7 C 7.3 g/m*3 19.7 C 0 km/h
239 29-04-2010 23:40:01 19.5 C 7.22 g/m*3 19.5 C 0 km/h
240 29-04-2010 23:52:01 19.3 C 7.13 g/m*3 19.3 C 0 km/h
241 30-04-2010 00:04:01 19.4 C 7.17 g/m*3 19.4 C 0 km/h
242 30-04-2010 00:16:02 19.6 C 7.09 g/m*3 19.6 C 0 km/h
243 30-04-2010 00:28:02 19.7 C 6.96 g/m*3 19.7 C 0 km/h
244 30-04-2010 00:40:02 20 C 6.91 g/m*3 20 C 0 km/h
245 30-04-2010 00:52:02 20.3 C 6.68 g/m*3 20.3 C 0 km/h
246 30-04-2010 01:04:02 20.5 C 6.58 g/m*3 20.5 C 0 km/h
247 30-04-2010 01:16:02 20.8 C 6.7 g/m*3 20.8 C 0 km/h
248 30-04-2010 01:28:02 20.9 C 6.92 g/m*3 20.9 C 0 km/h
249 30-04-2010 01:40:02 20.7 C 6.84 g/m*3 20.7 C 0 km/h
250 30-04-2010 01:52:02 20.8 C 6.7 g/m*3 20.8 C 0 km/h
Sensor: Nr:Datum:Temp:Abs-Feuchte:Windchill:Wind:
Aussen-T/F 251 30-04-2010 02:04:02 20.8 C 6.7 g/m*3 20.8 C 0 km/h
252 30-04-2010 02:16:02 20.9 C 6.74 g/m*3 20.9 C 0 km/h
253 30-04-2010 02:28:02 21 C 6.59 g/m*3 21 C 0 km/h
254 30-04-2010 02:40:02 20.5 C 6.94 g/m*3 20.5 C 0 km/h
255 30-04-2010 02:52:02 20.6 C 6.98 g/m*3 20.6 C 0 km/h
256 30-04-2010 03:04:02 20.4 C 7.08 g/m*3 20.4 C 0 km/h
257 30-04-2010 03:16:02 20.1 C 7.13 g/m*3 20.1 C 0 km/h
258 30-04-2010 03:28:02 20.1 C 7.3 g/m*3 20.1 C 0 km/h
259 30-04-2010 03:40:02 19.8 C 7.69 g/m*3 19.8 C 0 km/h
260 30-04-2010 03:52:02 19.8 C 7.86 g/m*3 19.8 C 0 km/h
261 30-04-2010 04:04:02 19.7 C 7.81 g/m*3 19.7 C 0 km/h
262 30-04-2010 04:16:02 19.7 C 7.98 g/m*3 19.7 C 0 km/h
263 30-04-2010 04:28:02 19.4 C 8.18 g/m*3 19.4 C 0 km/h
264 30-04-2010 04:40:03 19.2 C 8.24 g/m*3 19.2 C 0 km/h
265 30-04-2010 04:52:03 18.9 C 8.42 g/m*3 18.9 C 0 km/h
266 30-04-2010 05:04:03 18.7 C 8.33 g/m*3 18.7 C 0 km/h
267 30-04-2010 05:16:03 18.6 C 8.44 g/m*3 18.6 C 0 km/h
268 30-04-2010 05:28:03 18.2 C 8.39 g/m*3 18.2 C 0 km/h
269 30-04-2010 05:40:03 17.9 C 8.7 g/m*3 17.9 C 0 km/h
270 30-04-2010 05:52:03 17.8 C 8.65 g/m*3 17.8 C 0 km/h
271 30-04-2010 06:04:03 17.5 C 8.65 g/m*3 17.5 C 0 km/h
272 30-04-2010 06:16:03 17.4 C 8.74 g/m*3 17.4 C 0 km/h
273 30-04-2010 06:28:03 17.3 C 8.69 g/m*3 17.3 C 0 km/h
274 30-04-2010 06:40:03 17.4 C 8.74 g/m*3 17.4 C 0 km/h
275 30-04-2010 06:52:03 17.2 C 8.64 g/m*3 17.2 C 0 km/h
Sensor: Nr:Datum:Temp:Abs-Feuchte:Windchill:Wind:
Aussen-T/F 276 30-04-2010 07:04:02 17.1 C 8.73 g/m*3 17.1 C 0 km/h
277 30-04-2010 07:16:01 17.3 C 8.84 g/m*3 17.3 C 0 km/h
278 30-04-2010 07:28:01 17.5 C 8.95 g/m*3 17.5 C 0 km/h
279 30-04-2010 07:40:02 17.7 C 8.9 g/m*3 17.7 C 0 km/h
280 30-04-2010 07:52:02 17.6 C 8.55 g/m*3 17.6 C 0 km/h
281 30-04-2010 08:04:02 18.1 C 8.19 g/m*3 18.1 C 0 km/h
282 30-04-2010 08:16:02 18.3 C 7.97 g/m*3 18.3 C 0 km/h
283 30-04-2010 08:28:02 18.3 C 7.97 g/m*3 18.3 C 0 km/h
284 30-04-2010 08:40:02 18.2 C 7.93 g/m*3 18.2 C 0 km/h
285 30-04-2010 08:52:02 18.4 C 8.02 g/m*3 18.4 C 0 km/h
286 30-04-2010 09:04:03 18.3 C 7.97 g/m*3 18.3 C 0 km/h
287 30-04-2010 09:16:02 18.3 C 7.82 g/m*3 18.3 C 0 km/h
288 30-04-2010 09:28:02 18.4 C 7.24 g/m*3 18.4 C 0 km/h
289 30-04-2010 09:40:02 18.5 C 6.65 g/m*3 18.5 C 0 km/h
290 30-04-2010 09:52:01 18.4 C 6.61 g/m*3 18.4 C 0 km/h
291 30-04-2010 10:04:02 18.3 C 6.57 g/m*3 18.3 C 0 km/h
292 30-04-2010 10:16:01 18.5 C 6.33 g/m*3 18.5 C 0 km/h
293 30-04-2010 10:28:01 18.6 C 6.37 g/m*3 18.6 C 0 km/h
294 30-04-2010 10:40:02 18.8 C 6.44 g/m*3 18.8 C 0 km/h
295 30-04-2010 10:52:02 18.6 C 5.73 g/m*3 18.6 C 0 km/h
296 30-04-2010 11:04:02 19 C 5.87 g/m*3 19 C 0 km/h
297 30-04-2010 11:16:02 18.9 C 5.83 g/m*3 18.9 C 0 km/h
298 30-04-2010 11:28:02 19 C 5.87 g/m*3 19 C 0 km/h
299 30-04-2010 11:40:02 19.5 C 6.04 g/m*3 19.5 C 0 km/h
300 30-04-2010 11:52:02 19.7 C 6.11 g/m*3 19.7 C 0 km/h
Sensor: Nr:Datum:Temp:Abs-Feuchte:Windchill:Wind:
Aussen-T/F 301 30-04-2010 12:04:02 20.6 C 6.09 g/m*3 20.6 C 0 km/h
302 30-04-2010 12:16:02 20.8 C 5.79 g/m*3 20.8 C 0 km/h
303 30-04-2010 12:28:02 19.9 C 6.01 g/m*3 19.9 C 0 km/h
304 30-04-2010 12:40:02 19.8 C 5.98 g/m*3 19.8 C 0 km/h
305 30-04-2010 12:52:01 20 C 5.88 g/m*3 20 C 0 km/h
306 30-04-2010 13:04:02 20.6 C 5.73 g/m*3 20.6 C 0 km/h
307 30-04-2010 13:16:01 20.7 C 5.76 g/m*3 20.7 C 0 km/h
308 30-04-2010 13:28:01 21 C 5.5 g/m*3 21 C 0 km/h
309 30-04-2010 13:40:01 21 C 5.5 g/m*3 21 C 0 km/h
310 30-04-2010 13:52:01 20.8 C 5.61 g/m*3 20.8 C 0 km/h
311 30-04-2010 14:04:02 20.5 C 5.69 g/m*3 20.5 C 0 km/h
312 30-04-2010 14:16:01 21.4 C 5.81 g/m*3 21.4 C 0 km/h
313 30-04-2010 14:28:01 20.9 C 5.65 g/m*3 20.9 C 0 km/h
314 30-04-2010 14:40:02 20.8 C 5.79 g/m*3 20.8 C 0 km/h
315 30-04-2010 14:52:02 20.8 C 6.34 g/m*3 20.8 C 0 km/h
316 30-04-2010 15:04:02 20.4 C 6.01 g/m*3 20.4 C 0 km/h
317 30-04-2010 15:16:01 20.7 C 6.12 g/m*3 20.7 C 0 km/h
318 30-04-2010 15:28:01 20.6 C 6.09 g/m*3 20.6 C 0 km/h
319 30-04-2010 15:40:02 20.9 C 6.19 g/m*3 20.9 C 0 km/h
320 30-04-2010 15:52:02 20.6 C 6.09 g/m*3 20.6 C 0 km/h
321 30-04-2010 16:04:02 19.7 C 5.94 g/m*3 19.7 C 0 km/h
322 30-04-2010 16:16:01 19.4 C 5.84 g/m*3 19.4 C 0 km/h
323 30-04-2010 16:28:01 19.6 C 5.91 g/m*3 19.6 C 0 km/h
324 30-04-2010 16:40:02 19.7 C 5.94 g/m*3 19.7 C 0 km/h
325 30-04-2010 16:52:02 19.5 C 6.04 g/m*3 19.5 C 0 km/h
Sensor: Nr:Datum:Temp:Abs-Feuchte:Windchill:Wind:
Aussen-T/F 326 30-04-2010 17:04:02 19.7 C 6.11 g/m*3 19.7 C 0 km/h
327 30-04-2010 17:16:02 19.8 C 5.98 g/m*3 19.8 C 0 km/h
328 30-04-2010 17:28:02 20 C 6.22 g/m*3 20 C 0 km/h
329 30-04-2010 17:40:02 19.4 C 6.01 g/m*3 19.4 C 0 km/h
330 30-04-2010 17:52:02 19.5 C 6.04 g/m*3 19.5 C 0 km/h
331 30-04-2010 18:04:02 19.5 C 6.04 g/m*3 19.5 C 0 km/h
332 30-04-2010 18:16:02 19.7 C 6.28 g/m*3 19.7 C 0 km/h
333 30-04-2010 18:28:02 19.2 C 5.94 g/m*3 19.2 C 0 km/h
334 30-04-2010 18:40:02 19.1 C 6.07 g/m*3 19.1 C 0 km/h
335 30-04-2010 18:52:02 18.9 C 6.16 g/m*3 18.9 C 0 km/h
336 30-04-2010 19:04:02 18.8 C 6.44 g/m*3 18.8 C 0 km/h
337 30-04-2010 19:16:03 18.7 C 6.24 g/m*3 18.7 C 0 km/h
338 30-04-2010 19:28:03 18.4 C 6.13 g/m*3 18.4 C 0 km/h
339 30-04-2010 19:40:02 18.1 C 6.18 g/m*3 18.1 C 0 km/h
340 30-04-2010 19:52:02 18.1 C 6.33 g/m*3 18.1 C 0 km/h
341 30-04-2010 20:04:02 18 C 6.3 g/m*3 18 C 0 km/h
342 30-04-2010 20:16:03 17.9 C 6.41 g/m*3 17.9 C 0 km/h
343 30-04-2010 20:28:03 17.7 C 6.49 g/m*3 17.7 C 0 km/h
344 30-04-2010 20:40:02 17 C 7.23 g/m*3 17 C 0 km/h
345 30-04-2010 20:52:02 16.3 C 7.77 g/m*3 16.3 C 0 km/h
346 30-04-2010 21:04:02 15.1 C 8.26 g/m*3 15.1 C 0 km/h
347 30-04-2010 21:16:02 14.7 C 8.69 g/m*3 14.7 C 0 km/h
348 30-04-2010 21:28:02 15.1 C 8.9 g/m*3 15.1 C 0 km/h
349 30-04-2010 21:40:02 15.3 C 8.75 g/m*3 15.3 C 0 km/h
350 30-04-2010 21:52:02 15.2 C 8.44 g/m*3 15.2 C 0 km/h
Sensor: Nr:Datum:Temp:Abs-Feuchte:Windchill:Wind:
Aussen-T/F 351 30-04-2010 22:04:02 15.3 C 8.23 g/m*3 15.3 C 0 km/h
352 30-04-2010 22:16:02 15.2 C 8.05 g/m*3 15.2 C 0 km/h
353 30-04-2010 22:28:02 14.9 C 8.16 g/m*3 14.9 C 0 km/h
354 30-04-2010 22:40:02 14.9 C 8.16 g/m*3 14.9 C 0 km/h
355 30-04-2010 22:52:01 14.8 C 8.11 g/m*3 14.8 C 0 km/h
356 30-04-2010 23:05:02 14.2 C 7.33 g/m*3 14.2 C 0 km/h
357 30-04-2010 23:17:02 13.8 C 7.15 g/m*3 13.8 C 0 km/h
358 30-04-2010 23:29:02 13.4 C 6.74 g/m*3 13.4 C 0 km/h
359 30-04-2010 23:41:02 13.1 C 6.39 g/m*3 13.1 C 0 km/h
360 30-04-2010 23:53:02 13.1 C 6.28 g/m*3 13.1 C 0 km/h
361 01-05-2010 00:05:02 13.2 C 6.32 g/m*3 13.2 C 0 km/h
362 01-05-2010 00:17:02 13.3 C 6.47 g/m*3 13.3 C 0 km/h
363 01-05-2010 00:29:02 13.3 C 6.47 g/m*3 13.3 C 0 km/h
364 01-05-2010 00:41:03 13.4 C 6.86 g/m*3 13.4 C 0 km/h
365 01-05-2010 00:53:03 13.4 C 6.86 g/m*3 13.4 C 0 km/h
366 01-05-2010 01:05:03 13.4 C 6.86 g/m*3 13.4 C 0 km/h
367 01-05-2010 01:17:03 13.3 C 6.59 g/m*3 13.3 C 0 km/h
368 01-05-2010 01:29:03 13.2 C 6.77 g/m*3 13.2 C 0 km/h
369 01-05-2010 01:41:03 13.1 C 7.07 g/m*3 13.1 C 0 km/h
370 01-05-2010 01:53:03 13 C 7.03 g/m*3 13 C 0 km/h
371 01-05-2010 02:05:03 12.9 C 7.1 g/m*3 12.9 C 0 km/h
372 01-05-2010 02:17:03 12.8 C 7.06 g/m*3 12.8 C 0 km/h
373 01-05-2010 02:29:03 12.9 C 6.88 g/m*3 12.9 C 0 km/h
374 01-05-2010 02:41:03 12.9 C 6.65 g/m*3 12.9 C 0 km/h
375 01-05-2010 02:53:03 12.9 C 6.54 g/m*3 12.9 C 0 km/h
Sensor: Nr:Datum:Temp:Abs-Feuchte:Windchill:Wind:
Aussen-T/F 376 01-05-2010 03:05:03 12.8 C 6.83 g/m*3 12.8 C 0 km/h
377 01-05-2010 03:17:03 12.7 C 6.79 g/m*3 12.7 C 0 km/h
378 01-05-2010 03:29:03 12.6 C 6.53 g/m*3 12.6 C 0 km/h
379 01-05-2010 03:41:03 12.5 C 6.49 g/m*3 12.5 C 0 km/h
380 01-05-2010 03:53:03 12.5 C 6.6 g/m*3 12.5 C 0 km/h
381 01-05-2010 04:05:03 12.5 C 6.82 g/m*3 12.5 C 0 km/h
382 01-05-2010 04:17:03 12.5 C 7.26 g/m*3 12.5 C 0 km/h
383 01-05-2010 04:29:03 12.5 C 7.04 g/m*3 12.5 C 0 km/h
384 01-05-2010 04:41:03 12.4 C 7.21 g/m*3 12.4 C 0 km/h
385 01-05-2010 04:53:03 12.4 C 7.21 g/m*3 12.4 C 0 km/h
386 01-05-2010 05:05:04 12.4 C 7.21 g/m*3 12.4 C 0 km/h
387 01-05-2010 05:17:04 12.4 C 7.32 g/m*3 12.4 C 0 km/h
388 01-05-2010 05:29:04 12.4 C 7.43 g/m*3 12.4 C 0 km/h
389 01-05-2010 05:41:04 12.3 C 7.49 g/m*3 12.3 C 0 km/h
390 01-05-2010 05:53:04 11.8 C 7.79 g/m*3 11.8 C 0 km/h
391 01-05-2010 06:05:04 11.6 C 8.11 g/m*3 11.6 C 0 km/h
392 01-05-2010 06:17:04 11.5 C 8.16 g/m*3 11.5 C 0 km/h
393 01-05-2010 06:29:04 11.5 C 8.37 g/m*3 11.5 C 0 km/h
394 01-05-2010 06:41:04 11.5 C 8.47 g/m*3 11.5 C 0 km/h
395 01-05-2010 06:53:04 11.4 C 8.42 g/m*3 11.4 C 0 km/h
396 01-05-2010 07:05:04 11.4 C 8.42 g/m*3 11.4 C 0 km/h
397 01-05-2010 07:17:04 11.4 C 8.31 g/m*3 11.4 C 0 km/h
398 01-05-2010 07:29:04 11.6 C 8.52 g/m*3 11.6 C 0 km/h
399 01-05-2010 07:41:02 11.8 C 8.63 g/m*3 11.8 C 0 km/h
400 01-05-2010 07:53:01 12.1 C 8.69 g/m*3 12.1 C 0 km/h
Sensor: Nr:Datum:Temp:Abs-Feuchte:Windchill:Wind:
Aussen-T/F 401 01-05-2010 08:05:02 12.6 C 8.85 g/m*3 12.6 C 0 km/h
402 01-05-2010 08:17:01 12.7 C 8.24 g/m*3 12.7 C 0 km/h
403 01-05-2010 08:29:01 13 C 7.94 g/m*3 13 C 0 km/h
404 01-05-2010 08:41:01 13.4 C 8.14 g/m*3 13.4 C 0 km/h
405 01-05-2010 08:53:01 13.6 C 8.12 g/m*3 13.6 C 0 km/h
406 01-05-2010 09:05:02 13.9 C 8.15 g/m*3 13.9 C 0 km/h
407 01-05-2010 09:17:01 14.3 C 7.99 g/m*3 14.3 C 0 km/h
408 01-05-2010 09:29:01 14.3 C 7.86 g/m*3 14.3 C 0 km/h
409 01-05-2010 09:41:01 14.2 C 8.06 g/m*3 14.2 C 0 km/h
410 01-05-2010 09:53:01 14 C 7.96 g/m*3 14 C 0 km/h
411 01-05-2010 10:05:02 14.3 C 7.74 g/m*3 14.3 C 0 km/h
412 01-05-2010 10:17:01 14.3 C 7.49 g/m*3 14.3 C 0 km/h
413 01-05-2010 10:29:01 14.7 C 7.81 g/m*3 14.7 C 0 km/h
414 01-05-2010 10:41:02 14.7 C 7.43 g/m*3 14.7 C 0 km/h
415 01-05-2010 10:53:02 15.1 C 7.22 g/m*3 15.1 C 0 km/h
416 01-05-2010 11:05:02 15.8 C 7.4 g/m*3 15.8 C 0 km/h
417 01-05-2010 11:17:01 15.9 C 6.91 g/m*3 15.9 C 0 km/h
418 01-05-2010 11:29:01 16.5 C 6.46 g/m*3 16.5 C 0 km/h
419 01-05-2010 11:41:02 16.9 C 6.33 g/m*3 16.9 C 0 km/h
420 01-05-2010 11:53:02 17.2 C 5.71 g/m*3 17.2 C 0 km/h
421 01-05-2010 12:05:02 17.6 C 5.85 g/m*3 17.6 C 0 km/h
422 01-05-2010 12:17:02 17.7 C 5.88 g/m*3 17.7 C 0 km/h
423 01-05-2010 12:29:02 17.6 C 5.85 g/m*3 17.6 C 0 km/h
424 01-05-2010 12:41:02 16.9 C 5.32 g/m*3 16.9 C 0 km/h
425 01-05-2010 12:53:02 17.6 C 5.7 g/m*3 17.6 C 0 km/h
Sensor: Nr:Datum:Temp:Abs-Feuchte:Windchill:Wind:
Aussen-T/F 426 01-05-2010 13:05:02 18.9 C 5.67 g/m*3 18.9 C 0 km/h
427 01-05-2010 13:17:02 18.6 C 5.09 g/m*3 18.6 C 0 km/h
428 01-05-2010 13:29:02 18.9 C 5.18 g/m*3 18.9 C 0 km/h
429 01-05-2010 13:41:02 18.9 C 5.02 g/m*3 18.9 C 0 km/h
430 01-05-2010 13:53:01 20.7 C 4.68 g/m*3 20.7 C 0 km/h
431 01-05-2010 14:05:02 19.1 C 4.92 g/m*3 19.1 C 0 km/h
432 01-05-2010 14:17:01 19.9 C 4.98 g/m*3 19.9 C 0 km/h
433 01-05-2010 14:29:01 19.7 C 4.92 g/m*3 19.7 C 0 km/h
434 01-05-2010 14:41:02 20.3 C 4.75 g/m*3 20.3 C 0 km/h
435 01-05-2010 14:53:02 20.1 C 4.87 g/m*3 20.1 C 0 km/h
436 01-05-2010 15:05:03 19.7 C 4.75 g/m*3 19.7 C 0 km/h
437 01-05-2010 15:17:02 19.9 C 4.81 g/m*3 19.9 C 0 km/h
438 01-05-2010 15:29:02 18.9 C 4.86 g/m*3 18.9 C 0 km/h
439 01-05-2010 15:41:02 18.8 C 4.99 g/m*3 18.8 C 0 km/h
440 01-05-2010 15:53:02 18.1 C 5.1 g/m*3 18.1 C 0 km/h
441 01-05-2010 16:05:02 17.7 C 5.28 g/m*3 17.7 C 0 km/h
442 01-05-2010 16:17:01 17.5 C 5.37 g/m*3 17.5 C 0 km/h
443 01-05-2010 16:29:01 17.5 C 5.52 g/m*3 17.5 C 0 km/h
444 01-05-2010 16:41:02 17.5 C 5.67 g/m*3 17.5 C 0 km/h
445 01-05-2010 16:53:01 17.7 C 5.73 g/m*3 17.7 C 0 km/h
446 01-05-2010 17:05:02 17.7 C 5.73 g/m*3 17.7 C 0 km/h
447 01-05-2010 17:17:01 17.9 C 5.8 g/m*3 17.9 C 0 km/h
448 01-05-2010 17:29:01 17.9 C 5.65 g/m*3 17.9 C 0 km/h
449 01-05-2010 17:41:02 17.7 C 5.73 g/m*3 17.7 C 0 km/h
450 01-05-2010 17:53:01 17.2 C 5.71 g/m*3 17.2 C 0 km/h
Sensor: Nr:Datum:Temp:Abs-Feuchte:Windchill:Wind:
Aussen-T/F 451 01-05-2010 18:05:02 17.4 C 5.93 g/m*3 17.4 C 0 km/h
452 01-05-2010 18:17:02 17.5 C 5.96 g/m*3 17.5 C 0 km/h
453 01-05-2010 18:29:02 17.6 C 6.15 g/m*3 17.6 C 0 km/h
454 01-05-2010 18:41:01 17.4 C 5.93 g/m*3 17.4 C 0 km/h
455 01-05-2010 18:53:01 17.4 C 5.78 g/m*3 17.4 C 0 km/h
456 01-05-2010 19:05:01 17 C 5.64 g/m*3 17 C 0 km/h
457 01-05-2010 19:17:01 16.9 C 5.9 g/m*3 16.9 C 0 km/h
458 01-05-2010 19:29:01 16.8 C 6 g/m*3 16.8 C 0 km/h
459 01-05-2010 19:41:01 16.7 C 6.11 g/m*3 16.7 C 0 km/h
460 01-05-2010 19:53:02 16.4 C 6 g/m*3 16.4 C 0 km/h
461 01-05-2010 20:05:02 16.3 C 5.97 g/m*3 16.3 C 0 km/h
462 01-05-2010 20:17:02 16 C 5.99 g/m*3 16 C 0 km/h
463 01-05-2010 20:29:02 15.7 C 6.15 g/m*3 15.7 C 0 km/h
464 01-05-2010 20:41:02 15.6 C 6.25 g/m*3 15.6 C 0 km/h
465 01-05-2010 20:53:02 15.6 C 6.38 g/m*3 15.6 C 0 km/h
466 01-05-2010 21:05:01 15.5 C 6.34 g/m*3 15.5 C 0 km/h
467 01-05-2010 21:17:02 15.3 C 6.27 g/m*3 15.3 C 0 km/h
468 01-05-2010 21:29:02 15 C 6.41 g/m*3 15 C 0 km/h
469 01-05-2010 21:41:02 14.7 C 6.55 g/m*3 14.7 C 0 km/h
470 01-05-2010 21:53:02 14.4 C 6.55 g/m*3 14.4 C 0 km/h
471 01-05-2010 22:05:02 14.3 C 6.63 g/m*3 14.3 C 0 km/h
472 01-05-2010 22:17:02 14.3 C 5.77 g/m*3 14.3 C 0 km/h
473 01-05-2010 22:29:02 14.2 C 5.74 g/m*3 14.2 C 0 km/h
474 01-05-2010 22:41:01 14.2 C 5.98 g/m*3 14.2 C 0 km/h
475 01-05-2010 22:54:02 14.1 C 6.07 g/m*3 14.1 C 0 km/h
Sensor: Nr:Datum:Temp:Abs-Feuchte:Windchill:Wind:
Aussen-T/F 476 01-05-2010 23:06:03 14.2 C 6.23 g/m*3 14.2 C 0 km/h
477 01-05-2010 23:18:03 14.2 C 6.23 g/m*3 14.2 C 0 km/h
478 01-05-2010 23:30:03 14.2 C 6.35 g/m*3 14.2 C 0 km/h
479 01-05-2010 23:42:03 14 C 6.39 g/m*3 14 C 0 km/h
480 01-05-2010 23:54:03 13.9 C 6.47 g/m*3 13.9 C 0 km/h
481 02-05-2010 00:06:03 13.8 C 6.55 g/m*3 13.8 C 0 km/h
482 02-05-2010 00:18:03 13.3 C 6.93 g/m*3 13.3 C 0 km/h
483 02-05-2010 00:30:03 12.6 C 7.3 g/m*3 12.6 C 0 km/h
484 02-05-2010 00:42:03 12.6 C 7.41 g/m*3 12.6 C 0 km/h
485 02-05-2010 00:54:03 12.5 C 7.26 g/m*3 12.5 C 0 km/h
486 02-05-2010 01:06:03 12.5 C 7.26 g/m*3 12.5 C 0 km/h
487 02-05-2010 01:18:03 12.6 C 7.3 g/m*3 12.6 C 0 km/h
488 02-05-2010 01:30:03 12.6 C 7.19 g/m*3 12.6 C 0 km/h
489 02-05-2010 01:42:03 12.5 C 7.26 g/m*3 12.5 C 0 km/h
490 02-05-2010 01:54:03 12.5 C 7.26 g/m*3 12.5 C 0 km/h
491 02-05-2010 02:06:03 12.5 C 7.26 g/m*3 12.5 C 0 km/h
492 02-05-2010 02:18:03 12.4 C 7.21 g/m*3 12.4 C 0 km/h
493 02-05-2010 02:30:03 12.3 C 7.28 g/m*3 12.3 C 0 km/h
494 02-05-2010 02:42:03 12.2 C 7.23 g/m*3 12.2 C 0 km/h
495 02-05-2010 02:54:03 12.1 C 7.29 g/m*3 12.1 C 0 km/h
496 02-05-2010 03:06:03 12 C 7.25 g/m*3 12 C 0 km/h
497 02-05-2010 03:18:03 12 C 7.14 g/m*3 12 C 0 km/h
498 02-05-2010 03:30:04 11.9 C 7.31 g/m*3 11.9 C 0 km/h
499 02-05-2010 03:42:04 11.7 C 7.32 g/m*3 11.7 C 0 km/h
500 02-05-2010 03:54:04 11.6 C 7.17 g/m*3 11.6 C 0 km/h
Sensor: Nr:Datum:Temp:Abs-Feuchte:Windchill:Wind:
Aussen-T/F 501 02-05-2010 04:06:04 11.6 C 7.17 g/m*3 11.6 C 0 km/h
502 02-05-2010 04:18:04 11.6 C 7.17 g/m*3 11.6 C 0 km/h
503 02-05-2010 04:30:04 11.6 C 7.28 g/m*3 11.6 C 0 km/h
504 02-05-2010 04:42:04 11.7 C 7.43 g/m*3 11.7 C 0 km/h
505 02-05-2010 04:54:04 11.3 C 7.24 g/m*3 11.3 C 0 km/h
506 02-05-2010 05:06:04 11.1 C 7.05 g/m*3 11.1 C 0 km/h
507 02-05-2010 05:18:04 11.1 C 7.05 g/m*3 11.1 C 0 km/h
508 02-05-2010 05:30:04 11.1 C 7.15 g/m*3 11.1 C 0 km/h
509 02-05-2010 05:42:04 11 C 7.11 g/m*3 11 C 0 km/h
510 02-05-2010 05:54:04 11 C 7.11 g/m*3 11 C 0 km/h
511 02-05-2010 06:06:04 10.9 C 7.16 g/m*3 10.9 C 0 km/h
512 02-05-2010 06:18:04 11 C 7.11 g/m*3 11 C 0 km/h
513 02-05-2010 06:30:04 11 C 7.31 g/m*3 11 C 0 km/h
514 02-05-2010 06:42:04 10.9 C 7.26 g/m*3 10.9 C 0 km/h
515 02-05-2010 06:54:04 10.9 C 7.26 g/m*3 10.9 C 0 km/h
516 02-05-2010 07:06:04 11 C 7.21 g/m*3 11 C 0 km/h
517 02-05-2010 07:18:04 11.2 C 7.4 g/m*3 11.2 C 0 km/h
518 02-05-2010 07:30:04 11.4 C 7.49 g/m*3 11.4 C 0 km/h
519 02-05-2010 07:42:04 11.4 C 7.49 g/m*3 11.4 C 0 km/h
520 02-05-2010 07:54:02 11.4 C 7.49 g/m*3 11.4 C 0 km/h
521 02-05-2010 08:06:02 11.4 C 7.6 g/m*3 11.4 C 0 km/h
522 02-05-2010 08:18:02 11.6 C 7.8 g/m*3 11.6 C 0 km/h
523 02-05-2010 08:30:02 11.2 C 7.7 g/m*3 11.2 C 0 km/h
524 02-05-2010 08:42:02 11.2 C 7.8 g/m*3 11.2 C 0 km/h
525 02-05-2010 08:54:01 11.5 C 8.06 g/m*3 11.5 C 0 km/h
Sensor: Nr:Datum:Temp:Abs-Feuchte:Windchill:Wind:
Aussen-T/F 526 02-05-2010 09:06:02 11.8 C 8.21 g/m*3 11.8 C 0 km/h
527 02-05-2010 09:18:01 11.8 C 8 g/m*3 11.8 C 0 km/h
528 02-05-2010 09:30:01 12.1 C 8.04 g/m*3 12.1 C 0 km/h
529 02-05-2010 09:42:02 12.4 C 8.09 g/m*3 12.4 C 0 km/h
530 02-05-2010 09:54:01 12.9 C 8.11 g/m*3 12.9 C 0 km/h
531 02-05-2010 10:06:02 13.1 C 8.1 g/m*3 13.1 C 0 km/h
532 02-05-2010 10:18:01 13.5 C 8.07 g/m*3 13.5 C 0 km/h
533 02-05-2010 10:30:01 14.1 C 8.01 g/m*3 14.1 C 0 km/h
534 02-05-2010 10:42:02 14.9 C 8.03 g/m*3 14.9 C 0 km/h
535 02-05-2010 10:54:01 15.5 C 7.8 g/m*3 15.5 C 0 km/h
536 02-05-2010 11:06:02 16.2 C 7.58 g/m*3 16.2 C 0 km/h
537 02-05-2010 11:18:02 16.7 C 7.82 g/m*3 16.7 C 0 km/h
538 02-05-2010 11:30:02 17.4 C 7.26 g/m*3 17.4 C 0 km/h
539 02-05-2010 11:42:01 18.1 C 7.11 g/m*3 18.1 C 0 km/h
540 02-05-2010 11:54:02 17.9 C 7.02 g/m*3 17.9 C 0 km/h
541 02-05-2010 12:06:01 16.4 C 6.42 g/m*3 16.4 C 0 km/h
542 02-05-2010 12:18:02 13.5 C 7.37 g/m*3 13.5 C 0 km/h
543 02-05-2010 12:30:02 12.5 C 7.92 g/m*3 12.5 C 0 km/h
544 02-05-2010 12:42:01 11.4 C 7.7 g/m*3 11.4 C 0 km/h
545 02-05-2010 12:54:02 10.7 C 8.05 g/m*3 10.7 C 0 km/h
546 02-05-2010 13:06:02 10.8 C 8.3 g/m*3 10.8 C 0 km/h
547 02-05-2010 13:18:02 11.8 C 8.95 g/m*3 11.8 C 0 km/h
548 02-05-2010 13:30:02 11.6 C 8.63 g/m*3 11.6 C 0 km/h
549 02-05-2010 13:42:03 12.2 C 8.85 g/m*3 12.2 C 0 km/h
550 02-05-2010 13:54:02 13.1 C 8.9 g/m*3 13.1 C 0 km/h
Sensor: Nr:Datum:Temp:Abs-Feuchte:Windchill:Wind:
Aussen-T/F 551 02-05-2010 14:06:02 13.9 C 8.99 g/m*3 13.9 C 0 km/h
552 02-05-2010 14:18:02 14.5 C 8.95 g/m*3 14.5 C 0 km/h
553 02-05-2010 14:30:02 15.2 C 9.09 g/m*3 15.2 C 0 km/h
554 02-05-2010 14:42:02 15.3 C 8.88 g/m*3 15.3 C 0 km/h
555 02-05-2010 14:54:02 15.4 C 8.54 g/m*3 15.4 C 0 km/h
556 02-05-2010 15:06:02 14.9 C 8.03 g/m*3 14.9 C 0 km/h
557 02-05-2010 15:18:02 15.9 C 8.13 g/m*3 15.9 C 0 km/h
558 02-05-2010 15:30:02 17.7 C 7.39 g/m*3 17.7 C 0 km/h
559 02-05-2010 15:42:02 18.7 C 6.56 g/m*3 18.7 C 0 km/h
560 02-05-2010 15:54:02 18.6 C 6.05 g/m*3 18.6 C 0 km/h
561 02-05-2010 16:06:02 19.4 C 6.17 g/m*3 19.4 C 0 km/h
562 02-05-2010 16:18:02 18.8 C 5.96 g/m*3 18.8 C 0 km/h
563 02-05-2010 16:30:02 18 C 6.6 g/m*3 18 C 0 km/h
564 02-05-2010 16:42:02 17.3 C 7.37 g/m*3 17.3 C 0 km/h
565 02-05-2010 16:54:01 13.5 C 7.25 g/m*3 13.5 C 0 km/h
566 02-05-2010 17:06:02 12.3 C 8.25 g/m*3 12.3 C 0 km/h
567 02-05-2010 17:18:01 13.4 C 9.18 g/m*3 13.4 C 0 km/h
568 02-05-2010 17:30:01 15.2 C 8.83 g/m*3 15.2 C 0 km/h
569 02-05-2010 17:42:01 16.5 C 8.28 g/m*3 16.5 C 0 km/h
570 02-05-2010 17:54:01 17.2 C 8.05 g/m*3 17.2 C 0 km/h
571 02-05-2010 18:06:01 18.5 C 7.59 g/m*3 18.5 C 0 km/h
572 02-05-2010 18:18:02 18 C 6.91 g/m*3 18 C 0 km/h
573 02-05-2010 18:30:02 16.7 C 6.68 g/m*3 16.7 C 0 km/h
574 02-05-2010 18:42:01 16.3 C 6.94 g/m*3 16.3 C 0 km/h
575 02-05-2010 18:54:03 16.4 C 7.12 g/m*3 16.4 C 0 km/h
Sensor: Nr:Datum:Temp:Abs-Feuchte:Windchill:Wind:
Aussen-T/F 576 02-05-2010 19:06:02 17.5 C 6.71 g/m*3 17.5 C 0 km/h
577 02-05-2010 19:18:02 16.9 C 6.9 g/m*3 16.9 C 0 km/h
578 02-05-2010 19:30:02 18 C 6.91 g/m*3 18 C 0 km/h
579 02-05-2010 19:42:02 17.6 C 6.75 g/m*3 17.6 C 0 km/h
580 02-05-2010 19:54:02 17.3 C 6.48 g/m*3 17.3 C 0 km/h
581 02-05-2010 20:06:02 17.3 C 6.92 g/m*3 17.3 C 0 km/h
582 02-05-2010 20:18:02 17 C 7.23 g/m*3 17 C 0 km/h
583 02-05-2010 20:30:02 16.2 C 7.31 g/m*3 16.2 C 0 km/h
584 02-05-2010 20:42:02 15.1 C 7.35 g/m*3 15.1 C 0 km/h
585 02-05-2010 20:54:02 14.1 C 7.4 g/m*3 14.1 C 0 km/h
586 02-05-2010 21:06:02 13.4 C 7.56 g/m*3 13.4 C 0 km/h
587 02-05-2010 21:18:02 12.8 C 7.62 g/m*3 12.8 C 0 km/h
588 02-05-2010 21:30:03 12.5 C 7.7 g/m*3 12.5 C 0 km/h
589 02-05-2010 21:42:01 12.3 C 7.82 g/m*3 12.3 C 0 km/h
590 02-05-2010 21:54:03 12.1 C 7.72 g/m*3 12.1 C 0 km/h
591 02-05-2010 22:06:03 11.8 C 7.79 g/m*3 11.8 C 0 km/h
592 02-05-2010 22:19:04 11.6 C 7.8 g/m*3 11.6 C 0 km/h
593 02-05-2010 22:31:04 11.3 C 7.65 g/m*3 11.3 C 0 km/h
594 02-05-2010 22:43:04 11.2 C 7.7 g/m*3 11.2 C 0 km/h
595 02-05-2010 22:55:04 11 C 7.61 g/m*3 11 C 0 km/h
596 02-05-2010 23:07:04 10.8 C 7.61 g/m*3 10.8 C 0 km/h
597 02-05-2010 23:19:04 10.6 C 7.52 g/m*3 10.6 C 0 km/h
598 02-05-2010 23:31:04 10.2 C 7.33 g/m*3 10.2 C 0 km/h
599 02-05-2010 23:43:04 10.2 C 7.42 g/m*3 10.2 C 0 km/h
600 02-05-2010 23:55:04 10.2 C 7.42 g/m*3 10.2 C 0 km/h
Sensor: Nr:Datum:Temp:Abs-Feuchte:Windchill:Wind:
Aussen-T/F 601 03-05-2010 00:07:04 10.1 C 7.28 g/m*3 10.1 C 0 km/h
602 03-05-2010 00:19:04 10 C 7.33 g/m*3 10 C 0 km/h
603 03-05-2010 00:31:04 9.9 C 7.38 g/m*3 9.9 C 0 km/h
604 03-05-2010 00:43:04 9.5 C 7.19 g/m*3 9.5 C 0 km/h
605 03-05-2010 00:55:04 9.3 C 7.19 g/m*3 9.3 C 0 km/h
606 03-05-2010 01:07:04 9.2 C 7.14 g/m*3 9.2 C 0 km/h
607 03-05-2010 01:19:04 9.1 C 7.1 g/m*3 9.1 C 0 km/h
608 03-05-2010 01:31:04 9.1 C 7.1 g/m*3 9.1 C 0 km/h
609 03-05-2010 01:43:04 8.7 C 7.09 g/m*3 8.7 C 0 km/h
610 03-05-2010 01:55:04 8.7 C 7.09 g/m*3 8.7 C 0 km/h
611 03-05-2010 02:07:04 8.5 C 7 g/m*3 8.5 C 0 km/h
612 03-05-2010 02:19:05 8.1 C 6.82 g/m*3 8.1 C 0 km/h
613 03-05-2010 02:31:05 8 C 6.78 g/m*3 8 C 0 km/h
614 03-05-2010 02:43:05 8 C 6.78 g/m*3 8 C 0 km/h
615 03-05-2010 02:55:05 8 C 6.78 g/m*3 8 C 0 km/h
616 03-05-2010 03:07:05 8.2 C 7.03 g/m*3 8.2 C 0 km/h
617 03-05-2010 03:19:05 8.2 C 7.03 g/m*3 8.2 C 0 km/h
618 03-05-2010 03:31:05 8 C 6.94 g/m*3 8 C 0 km/h
619 03-05-2010 03:43:05 8 C 7.03 g/m*3 8 C 0 km/h
620 03-05-2010 03:55:05 8.1 C 7.07 g/m*3 8.1 C 0 km/h
621 03-05-2010 04:07:05 8.2 C 7.12 g/m*3 8.2 C 0 km/h
622 03-05-2010 04:19:05 8.3 C 7.16 g/m*3 8.3 C 0 km/h
623 03-05-2010 04:31:05 8.4 C 7.21 g/m*3 8.4 C 0 km/h
624 03-05-2010 04:43:05 8.6 C 7.22 g/m*3 8.6 C 0 km/h
625 03-05-2010 04:55:05 8.6 C 7.22 g/m*3 8.6 C 0 km/h
Sensor: Nr:Datum:Temp:Abs-Feuchte:Windchill:Wind:
Aussen-T/F 626 03-05-2010 05:07:05 8.6 C 7.13 g/m*3 8.6 C 0 km/h
627 03-05-2010 05:19:05 8.6 C 7.13 g/m*3 8.6 C 0 km/h
628 03-05-2010 05:31:05 8.6 C 7.13 g/m*3 8.6 C 0 km/h
629 03-05-2010 05:43:05 8.7 C 7.18 g/m*3 8.7 C 0 km/h
630 03-05-2010 05:55:05 8.5 C 7.09 g/m*3 8.5 C 0 km/h
631 03-05-2010 06:07:05 8.6 C 7.13 g/m*3 8.6 C 0 km/h
632 03-05-2010 06:19:05 8.7 C 7.18 g/m*3 8.7 C 0 km/h
633 03-05-2010 06:31:05 8.6 C 7.13 g/m*3 8.6 C 0 km/h
634 03-05-2010 06:43:05 8.6 C 7.13 g/m*3 8.6 C 0 km/h
635 03-05-2010 06:55:02 8.5 C 7.09 g/m*3 8.5 C 0 km/h
636 03-05-2010 07:07:03 8.2 C 6.95 g/m*3 8.2 C 0 km/h
637 03-05-2010 07:19:02 8.3 C 7 g/m*3 8.3 C 0 km/h
638 03-05-2010 07:31:02 8.2 C 7.03 g/m*3 8.2 C 0 km/h
639 03-05-2010 07:43:02 8.5 C 7.17 g/m*3 8.5 C 0 km/h
640 03-05-2010 07:55:01 8.8 C 7.4 g/m*3 8.8 C 0 km/h
641 03-05-2010 08:07:02 9.1 C 7.28 g/m*3 9.1 C 0 km/h
642 03-05-2010 08:19:02 9.6 C 7.24 g/m*3 9.6 C 0 km/h
643 03-05-2010 08:31:02 10 C 6.86 g/m*3 10 C 0 km/h
644 03-05-2010 08:43:02 9.9 C 6.72 g/m*3 9.9 C 0 km/h
645 03-05-2010 08:55:02 10 C 6.67 g/m*3 10 C 0 km/h
646 03-05-2010 09:07:02 10.1 C 6.62 g/m*3 10.1 C 0 km/h
647 03-05-2010 09:19:02 10.6 C 6.83 g/m*3 10.6 C 0 km/h
648 03-05-2010 09:31:02 10.5 C 6.69 g/m*3 10.5 C 0 km/h
649 03-05-2010 09:43:02 10.8 C 6.82 g/m*3 10.8 C 0 km/h
650 03-05-2010 09:55:01 10.8 C 6.72 g/m*3 10.8 C 0 km/h
Sensor: Nr:Datum:Temp:Abs-Feuchte:Windchill:Wind:
Aussen-T/F 651 03-05-2010 10:07:02 10.8 C 6.72 g/m*3 10.8 C 0 km/h
652 03-05-2010 10:19:01 11 C 6.71 g/m*3 11 C 0 km/h
653 03-05-2010 10:31:01 10.9 C 6.76 g/m*3 10.9 C 0 km/h
654 03-05-2010 10:43:01 10.8 C 6.72 g/m*3 10.8 C 0 km/h
655 03-05-2010 10:55:01 11.5 C 6.92 g/m*3 11.5 C 0 km/h
656 03-05-2010 11:07:02 12.1 C 6.65 g/m*3 12.1 C 0 km/h
657 03-05-2010 11:19:01 11.9 C 6.67 g/m*3 11.9 C 0 km/h
658 03-05-2010 11:31:01 12.1 C 6.65 g/m*3 12.1 C 0 km/h
659 03-05-2010 11:43:01 14.1 C 6.8 g/m*3 14.1 C 0 km/h
660 03-05-2010 11:55:01 14.5 C 6.72 g/m*3 14.5 C 0 km/h
661 03-05-2010 12:07:01 14.7 C 6.55 g/m*3 14.7 C 0 km/h
662 03-05-2010 12:19:02 15.7 C 6.42 g/m*3 15.7 C 0 km/h
663 03-05-2010 12:31:01 15.2 C 6.23 g/m*3 15.2 C 0 km/h
664 03-05-2010 12:43:01 14.5 C 6.09 g/m*3 14.5 C 0 km/h
665 03-05-2010 12:55:02 13.6 C 6.94 g/m*3 13.6 C 0 km/h
666 03-05-2010 13:07:01 14.2 C 6.84 g/m*3 14.2 C 0 km/h
667 03-05-2010 13:19:01 14.9 C 6.88 g/m*3 14.9 C 0 km/h
668 03-05-2010 13:31:01 15.7 C 6.42 g/m*3 15.7 C 0 km/h
669 03-05-2010 13:43:01 16.7 C 6.25 g/m*3 16.7 C 0 km/h
670 03-05-2010 13:55:02 11.3 C 5.71 g/m*3 11.3 C 0 km/h
671 03-05-2010 14:07:02 11.2 C 6.28 g/m*3 11.2 C 0 km/h
672 03-05-2010 14:19:02 10.1 C 6.43 g/m*3 10.1 C 0 km/h
673 03-05-2010 14:31:01 9.1 C 6.83 g/m*3 9.1 C 0 km/h
674 03-05-2010 14:43:01 9 C 7.23 g/m*3 9 C 0 km/h
675 03-05-2010 14:55:02 8.4 C 7.13 g/m*3 8.4 C 0 km/h
Sensor: Nr:Datum:Temp:Abs-Feuchte:Windchill:Wind:
Aussen-T/F 676 03-05-2010 15:07:01 8.8 C 7.49 g/m*3 8.8 C 0 km/h
677 03-05-2010 15:19:02 9 C 7.67 g/m*3 9 C 0 km/h
678 03-05-2010 15:31:02 9.6 C 8.06 g/m*3 9.6 C 0 km/h
679 03-05-2010 15:43:02 10.2 C 8.18 g/m*3 10.2 C 0 km/h
680 03-05-2010 15:55:02 11.1 C 8.56 g/m*3 11.1 C 0 km/h
681 03-05-2010 16:07:02 11.1 C 7.86 g/m*3 11.1 C 0 km/h
682 03-05-2010 16:19:02 11 C 7.51 g/m*3 11 C 0 km/h
683 03-05-2010 16:31:02 10.2 C 7.23 g/m*3 10.2 C 0 km/h
684 03-05-2010 16:43:02 10.1 C 7.28 g/m*3 10.1 C 0 km/h
685 03-05-2010 16:55:01 10.5 C 7.37 g/m*3 10.5 C 0 km/h
686 03-05-2010 17:07:02 10.1 C 6.9 g/m*3 10.1 C 0 km/h
687 03-05-2010 17:19:01 10.4 C 7.42 g/m*3 10.4 C 0 km/h
688 03-05-2010 17:31:02 10.7 C 7.46 g/m*3 10.7 C 0 km/h
689 03-05-2010 17:43:03 11.4 C 7.49 g/m*3 11.4 C 0 km/h
690 03-05-2010 17:55:02 11.5 C 7.02 g/m*3 11.5 C 0 km/h
691 03-05-2010 18:07:02 11.3 C 7.14 g/m*3 11.3 C 0 km/h
692 03-05-2010 18:19:01 10.7 C 6.58 g/m*3 10.7 C 0 km/h
693 03-05-2010 18:31:02 10.9 C 6.96 g/m*3 10.9 C 0 km/h
694 03-05-2010 18:43:02 11 C 7.01 g/m*3 11 C 0 km/h
695 03-05-2010 18:55:02 10.9 C 6.66 g/m*3 10.9 C 0 km/h
696 03-05-2010 19:07:02 10.8 C 6.62 g/m*3 10.8 C 0 km/h
697 03-05-2010 19:19:01 10.7 C 6.58 g/m*3 10.7 C 0 km/h
698 03-05-2010 19:31:02 10.4 C 6.65 g/m*3 10.4 C 0 km/h
699 03-05-2010 19:43:02 10.3 C 6.42 g/m*3 10.3 C 0 km/h
700 03-05-2010 19:55:02 10.3 C 6.42 g/m*3 10.3 C 0 km/h
Sensor: Nr:Datum:Temp:Abs-Feuchte:Windchill:Wind:
Aussen-T/F 701 03-05-2010 20:07:02 10.1 C 6.15 g/m*3 10.1 C 0 km/h
702 03-05-2010 20:19:02 10 C 6.01 g/m*3 10 C 0 km/h
703 03-05-2010 20:31:02 9.8 C 6.12 g/m*3 9.8 C 0 km/h
704 03-05-2010 20:43:02 9.5 C 5.92 g/m*3 9.5 C 0 km/h
705 03-05-2010 20:55:01 9.3 C 6.11 g/m*3 9.3 C 0 km/h
706 03-05-2010 21:07:02 9.2 C 6.07 g/m*3 9.2 C 0 km/h
707 03-05-2010 21:19:02 9.2 C 6.25 g/m*3 9.2 C 0 km/h
708 03-05-2010 21:31:02 9.2 C 6.25 g/m*3 9.2 C 0 km/h
709 03-05-2010 21:43:02 8.9 C 6.39 g/m*3 8.9 C 0 km/h
710 03-05-2010 21:55:02 8.9 C 6.31 g/m*3 8.9 C 0 km/h
711 03-05-2010 22:07:02 8.8 C 6.44 g/m*3 8.8 C 0 km/h
712 03-05-2010 22:20:05 8.7 C 6.49 g/m*3 8.7 C 0 km/h
713 03-05-2010 22:32:05 8.5 C 6.49 g/m*3 8.5 C 0 km/h
714 03-05-2010 22:44:05 8.5 C 6.57 g/m*3 8.5 C 0 km/h
715 03-05-2010 22:56:05 8.4 C 6.45 g/m*3 8.4 C 0 km/h
716 03-05-2010 23:08:05 8.4 C 6.45 g/m*3 8.4 C 0 km/h
717 03-05-2010 23:20:05 8.4 C 6.53 g/m*3 8.4 C 0 km/h
718 03-05-2010 23:32:05 8.4 C 6.53 g/m*3 8.4 C 0 km/h
719 03-05-2010 23:44:05 8.3 C 6.49 g/m*3 8.3 C 0 km/h
720 03-05-2010 23:56:05 8.3 C 6.49 g/m*3 8.3 C 0 km/h
721 04-05-2010 00:08:05 8 C 6.37 g/m*3 8 C 0 km/h
722 04-05-2010 00:20:05 7.5 C 6.24 g/m*3 7.5 C 0 km/h
723 04-05-2010 00:32:05 7.2 C 6.28 g/m*3 7.2 C 0 km/h
724 04-05-2010 00:44:05 7.4 C 6.44 g/m*3 7.4 C 0 km/h
725 04-05-2010 00:56:05 7.8 C 6.69 g/m*3 7.8 C 0 km/h
Sensor: Nr:Datum:Temp:Abs-Feuchte:Windchill:Wind:
Aussen-T/F 726 04-05-2010 01:08:05 8 C 6.53 g/m*3 8 C 0 km/h
727 04-05-2010 01:20:06 8.1 C 6.49 g/m*3 8.1 C 0 km/h
728 04-05-2010 01:32:06 8.2 C 6.45 g/m*3 8.2 C 0 km/h
729 04-05-2010 01:44:06 8.3 C 6.49 g/m*3 8.3 C 0 km/h
730 04-05-2010 01:56:06 8.4 C 6.53 g/m*3 8.4 C 0 km/h
731 04-05-2010 02:08:06 8.4 C 6.53 g/m*3 8.4 C 0 km/h
732 04-05-2010 02:20:06 8.4 C 6.53 g/m*3 8.4 C 0 km/h
733 04-05-2010 02:32:06 8.4 C 6.53 g/m*3 8.4 C 0 km/h
734 04-05-2010 02:44:06 8.3 C 6.49 g/m*3 8.3 C 0 km/h
735 04-05-2010 02:56:06 8.4 C 6.62 g/m*3 8.4 C 0 km/h
736 04-05-2010 03:08:06 8.4 C 6.62 g/m*3 8.4 C 0 km/h
737 04-05-2010 03:20:06 8.4 C 6.62 g/m*3 8.4 C 0 km/h
738 04-05-2010 03:32:06 8.3 C 6.57 g/m*3 8.3 C 0 km/h
739 04-05-2010 03:44:06 8.2 C 6.62 g/m*3 8.2 C 0 km/h
740 04-05-2010 03:56:06 8.1 C 6.66 g/m*3 8.1 C 0 km/h
741 04-05-2010 04:08:06 8 C 6.61 g/m*3 8 C 0 km/h
742 04-05-2010 04:20:06 7.9 C 6.74 g/m*3 7.9 C 0 km/h
743 04-05-2010 04:32:06 7.9 C 6.82 g/m*3 7.9 C 0 km/h
744 04-05-2010 04:44:06 7.9 C 6.82 g/m*3 7.9 C 0 km/h
745 04-05-2010 04:56:06 7.9 C 6.82 g/m*3 7.9 C 0 km/h
746 04-05-2010 05:08:06 8 C 6.78 g/m*3 8 C 0 km/h
747 04-05-2010 05:20:06 8.1 C 6.82 g/m*3 8.1 C 0 km/h
748 04-05-2010 05:32:07 8.2 C 6.87 g/m*3 8.2 C 0 km/h
749 04-05-2010 05:44:07 8.2 C 6.87 g/m*3 8.2 C 0 km/h
750 04-05-2010 05:56:07 8.2 C 6.87 g/m*3 8.2 C 0 km/h
Sensor: Nr:Datum:Temp:Abs-Feuchte:Windchill:Wind:
Aussen-T/F 751 04-05-2010 06:08:07 8.1 C 6.82 g/m*3 8.1 C 0 km/h
752 04-05-2010 06:20:07 8.2 C 6.87 g/m*3 8.2 C 0 km/h
753 04-05-2010 06:32:07 8.2 C 6.87 g/m*3 8.2 C 0 km/h
754 04-05-2010 06:44:07 8.3 C 6.91 g/m*3 8.3 C 0 km/h
755 04-05-2010 06:56:02 8.4 C 6.96 g/m*3 8.4 C 0 km/h
756 04-05-2010 07:08:01 8.5 C 7 g/m*3 8.5 C 0 km/h
757 04-05-2010 07:20:02 8.6 C 6.96 g/m*3 8.6 C 0 km/h
758 04-05-2010 07:32:01 8.7 C 7.01 g/m*3 8.7 C 0 km/h
759 04-05-2010 07:44:01 8.7 C 6.92 g/m*3 8.7 C 0 km/h
760 04-05-2010 07:56:02 8.8 C 6.79 g/m*3 8.8 C 0 km/h
761 04-05-2010 08:08:01 9.2 C 6.61 g/m*3 9.2 C 0 km/h
762 04-05-2010 08:20:01 9 C 6.44 g/m*3 9 C 0 km/h
763 04-05-2010 08:32:02 9.1 C 6.48 g/m*3 9.1 C 0 km/h
764 04-05-2010 08:44:03 8.9 C 6.31 g/m*3 8.9 C 0 km/h
765 04-05-2010 08:56:02 8.9 C 6.31 g/m*3 8.9 C 0 km/h
766 04-05-2010 09:08:02 9.2 C 6.34 g/m*3 9.2 C 0 km/h
767 04-05-2010 09:20:01 9.1 C 6.21 g/m*3 9.1 C 0 km/h
768 04-05-2010 09:32:02 9.3 C 6.29 g/m*3 9.3 C 0 km/h
769 04-05-2010 09:44:02 9.3 C 6.2 g/m*3 9.3 C 0 km/h
770 04-05-2010 09:56:02 9.5 C 6.19 g/m*3 9.5 C 0 km/h
771 04-05-2010 10:08:02 9.6 C 6.14 g/m*3 9.6 C 0 km/h
772 04-05-2010 10:20:01 9.8 C 5.85 g/m*3 9.8 C 0 km/h
773 04-05-2010 10:32:02 9.8 C 5.85 g/m*3 9.8 C 0 km/h
774 04-05-2010 10:44:02 9.9 C 5.7 g/m*3 9.9 C 0 km/h
775 04-05-2010 10:56:01 10 C 5.54 g/m*3 10 C 0 km/h
Sensor: Nr:Datum:Temp:Abs-Feuchte:Windchill:Wind:
Aussen-T/F 776 04-05-2010 11:08:02 10.2 C 5.52 g/m*3 10.2 C 0 km/h
777 04-05-2010 11:20:02 10.5 C 5.24 g/m*3 10.5 C 0 km/h
778 04-05-2010 11:32:02 10.7 C 5.21 g/m*3 10.7 C 0 km/h
779 04-05-2010 11:44:02 11.1 C 5.04 g/m*3 11.1 C 0 km/h
780 04-05-2010 11:56:02 11.3 C 5 g/m*3 11.3 C 0 km/h
781 04-05-2010 12:08:02 10.8 C 4.94 g/m*3 10.8 C 0 km/h
782 04-05-2010 12:20:02 10.5 C 4.85 g/m*3 10.5 C 0 km/h
783 04-05-2010 12:32:01 10.6 C 4.78 g/m*3 10.6 C 0 km/h
784 04-05-2010 12:44:01 11.6 C 4.89 g/m*3 11.6 C 0 km/h
785 04-05-2010 12:56:02 12 C 4.69 g/m*3 12 C 0 km/h
786 04-05-2010 13:08:01 12.2 C 4.64 g/m*3 12.2 C 0 km/h
787 04-05-2010 13:20:02 11.7 C 4.71 g/m*3 11.7 C 0 km/h
788 04-05-2010 13:32:01 11.8 C 4.53 g/m*3 11.8 C 0 km/h
789 04-05-2010 13:44:01 12 C 4.48 g/m*3 12 C 0 km/h
790 04-05-2010 13:56:02 12.2 C 4.53 g/m*3 12.2 C 0 km/h
791 04-05-2010 14:08:02 12.1 C 4.5 g/m*3 12.1 C 0 km/h
792 04-05-2010 14:20:02 12.5 C 4.84 g/m*3 12.5 C 0 km/h
793 04-05-2010 14:32:02 13.1 C 4.56 g/m*3 13.1 C 0 km/h
794 04-05-2010 14:44:02 13.4 C 4.65 g/m*3 13.4 C 0 km/h
795 04-05-2010 14:56:02 13.5 C 4.44 g/m*3 13.5 C 0 km/h
796 04-05-2010 15:08:02 13.5 C 4.56 g/m*3 13.5 C 0 km/h
797 04-05-2010 15:20:02 13.8 C 4.41 g/m*3 13.8 C 0 km/h
798 04-05-2010 15:32:02 13.5 C 4.44 g/m*3 13.5 C 0 km/h
799 04-05-2010 15:44:02 13.5 C 4.56 g/m*3 13.5 C 0 km/h
800 04-05-2010 15:56:02 12.9 C 4.51 g/m*3 12.9 C 0 km/h
Sensor: Nr:Datum:Temp:Abs-Feuchte:Windchill:Wind:
Aussen-T/F 801 04-05-2010 16:08:02 12.5 C 4.51 g/m*3 12.5 C 0 km/h
802 04-05-2010 16:20:02 12.8 C 4.59 g/m*3 12.8 C 0 km/h
803 04-05-2010 16:32:02 12.5 C 4.4 g/m*3 12.5 C 0 km/h
804 04-05-2010 16:44:02 12.5 C 4.4 g/m*3 12.5 C 0 km/h
805 04-05-2010 16:56:01 12 C 4.26 g/m*3 12 C 0 km/h
806 04-05-2010 17:08:02 12 C 4.26 g/m*3 12 C 0 km/h
807 04-05-2010 17:20:01 11.4 C 4.31 g/m*3 11.4 C 0 km/h
808 04-05-2010 17:32:02 11.4 C 4.41 g/m*3 11.4 C 0 km/h
809 04-05-2010 17:44:02 11.5 C 4.34 g/m*3 11.5 C 0 km/h
810 04-05-2010 17:56:02 11.4 C 4.31 g/m*3 11.4 C 0 km/h
811 04-05-2010 18:08:02 11.5 C 4.23 g/m*3 11.5 C 0 km/h
812 04-05-2010 18:20:02 11.4 C 4.21 g/m*3 11.4 C 0 km/h
813 04-05-2010 18:32:02 11.2 C 4.16 g/m*3 11.2 C 0 km/h
814 04-05-2010 18:44:02 11.1 C 4.13 g/m*3 11.1 C 0 km/h
815 04-05-2010 18:56:02 11 C 4.3 g/m*3 11 C 0 km/h
816 04-05-2010 19:08:02 11 C 4.3 g/m*3 11 C 0 km/h
817 04-05-2010 19:20:02 12 C 4.16 g/m*3 12 C 0 km/h
818 04-05-2010 19:32:02 11.4 C 4 g/m*3 11.4 C 0 km/h
819 04-05-2010 19:44:02 11 C 4 g/m*3 11 C 0 km/h
820 04-05-2010 19:56:01 11 C 4.2 g/m*3 11 C 0 km/h
821 04-05-2010 20:08:02 10.7 C 4.22 g/m*3 10.7 C 0 km/h
822 04-05-2010 20:20:01 10.6 C 4.49 g/m*3 10.6 C 0 km/h
823 04-05-2010 20:32:01 10.1 C 4.35 g/m*3 10.1 C 0 km/h
824 04-05-2010 20:44:01 9.8 C 4.36 g/m*3 9.8 C 0 km/h
825 04-05-2010 20:56:01 9.4 C 4.34 g/m*3 9.4 C 0 km/h
Sensor: Nr:Datum:Temp:Abs-Feuchte:Windchill:Wind:
Aussen-T/F 826 04-05-2010 21:08:02 9.5 C 4.28 g/m*3 9.5 C 0 km/h
827 04-05-2010 21:20:01 9.6 C 4.31 g/m*3 9.6 C 0 km/h
828 04-05-2010 21:32:01 9.7 C 4.61 g/m*3 9.7 C 0 km/h
829 04-05-2010 21:44:01 9.5 C 4.64 g/m*3 9.5 C 0 km/h
830 04-05-2010 21:56:01 8.8 C 4.61 g/m*3 8.8 C 0 km/h
831 04-05-2010 22:09:04 8.2 C 4.35 g/m*3 8.2 C 0 km/h
832 04-05-2010 22:21:04 8.1 C 4.33 g/m*3 8.1 C 0 km/h
833 04-05-2010 22:33:05 7.8 C 4.24 g/m*3 7.8 C 0 km/h
834 04-05-2010 22:45:05 7.7 C 4.14 g/m*3 7.7 C 0 km/h
835 04-05-2010 22:57:05 7.5 C 4.16 g/m*3 7.5 C 0 km/h
836 04-05-2010 23:09:05 7.4 C 4.14 g/m*3 7.4 C 0 km/h
837 04-05-2010 23:21:05 7.4 C 4.14 g/m*3 7.4 C 0 km/h
838 04-05-2010 23:33:05 7.3 C 4.03 g/m*3 7.3 C 0 km/h
839 04-05-2010 23:45:05 7.3 C 4.03 g/m*3 7.3 C 0 km/h
840 04-05-2010 23:57:05 7 C 3.95 g/m*3 7 C 0 km/h

Legende:
   Min
   Max


Maximal/Minimal-Werte vom 28.04.2010 - 04.05.2010

Sensor Min Max Avg
Temp
(Aussen-T/F)
7 °C
04-05-2010  23:57:05
29.2 °C
28-04-2010  17:14:01
14.74 °C
Abs-Feuchte
(Aussen-T/F)
3.95 g/m*3
04-05-2010  23:57:05
9.18 g/m*3
02-05-2010  17:18:01
6.41 g/m*3
Windchill
(Aussen-T/F)
7 C
04-05-2010  23:57:05
29.2 C
28-04-2010  17:14:01
14.72 C

Die Daten stammen von einer Davis Vantage Pro 2 Wetter-Station und werden unter Linux mit der Software wview2wettercgi und aufbereitet. Alle Angaben erfolgen ohne Gewähr für ihre Vollständigkeit oder Richtigkeit.
Kontakt: Rainer Krienke krienke@uni-koblenz.de . Meine Webseiten an der Uni Koblenz oder privat.
Version: $Revision: 0.78 $